Flag for U.S.A. Weather past 2 weeks in Bloomington, Illinois, U.S.A.

Now
38 °F

Sunny.


Feels Like: 27 °F
Forecast: 24 / 38 °F
Wind: 22 mph from South

Location: Bloomington / Normal

Current Time: Jan 28, 2015 at 2:44:55 PM

Latest Report: Jan 28, 2015 at 1:56 PM


Visibility: 10 mi

Pressure: 30.12 "Hg

Humidity: 77%

Dew point: 31 °F

Location of BloomingtonLocation

Historic Weather in Bloomington — Graph

°F

Bloomington temperature yesterday

Maximum temperature yesterday: 32 °F (at 2:56 AM)
Minimum temperature yesterday: 29 °F (at 6:56 AM)
Average temperature yesterday: 30 °F

Past Weeks' High & Low Weather Summary

 TemperatureHumidityPressure
High45 °F (Jan 24, 3:56 PM)100% (Jan 16, 4:56 AM)30.67 "Hg (Jan 16, 4:56 AM)
Low-3 °F (Jan 14, 4:56 AM)67% (Jan 28, 9:56 AM)29.63 "Hg (Jan 25, 3:56 AM)
Average30 °F88%30.09 "Hg
* Reported Jan 13 1:56 PM — Jan 28 1:56 PM, Bloomington, Weather by CustomWeather, © 2014

Note: Actual official high and low records may vary slightly from our data, if they occured in-between our weather recording intervals... More about our weather records

Advertising

Bloomington weather history for previous 24 hours

 ConditionsComfort  
Time TempWeatherWind HumidityBarometerVisibility
1:56 PM
Jan 28
38 °FSunny.22 mph77%30.12 "Hg10 mi
12:56 PM37 °FSunny.22 mph76%30.16 "Hg10 mi
11:56 AM36 °FSunny.22 mph73%30.21 "Hg10 mi
10:56 AM32 °FSunny.18 mph73%30.26 "Hg10 mi
9:56 AM30 °FSunny.20 mph67%30.29 "Hg10 mi
8:56 AM27 °FSunny.20 mph71%30.30 "Hg10 mi
7:56 AM25 °FSunny.14 mph77%30.33 "Hg10 mi
6:56 AM23 °FClear.10 mph85%30.32 "Hg10 mi
5:56 AM22 °FClear.8 mph88%30.33 "Hg9 mi
4:56 AM23 °FClear.9 mph81%30.30 "Hg10 mi
3:56 AM23 °FClear.8 mph85%30.31 "Hg10 mi
2:56 AM24 °FClear.7 mph92%30.31 "Hg7 mi
1:56 AM25 °FIce fog.6 mph91%30.32 "Hg4 mi
12:56 AM26 °FClear.7 mph92%30.30 "Hg7 mi
11:56 PM
Jan 27
29 °FOvercast.6 mph89%30.32 "Hg8 mi
10:56 PM29 °FOvercast.6 mph89%30.31 "Hg8 mi
9:56 PM30 °FOvercast.3 mph85%30.30 "Hg7 mi
8:56 PM30 °FOvercast.5 mph89%30.29 "Hg8 mi
7:56 PM30 °FOvercast.5 mph89%30.29 "Hg8 mi
6:56 PM30 °FOvercast.6 mph85%30.29 "Hg9 mi
5:56 PM31 °FOvercast.6 mph82%30.28 "Hg10 mi
4:56 PM31 °FOvercast.3 mph82%30.28 "Hg10 mi
3:56 PM31 °FOvercast.5 mph79%30.26 "Hg10 mi
2:56 PM32 °FOvercast.8 mph82%30.24 "Hg10 mi
Weather by CustomWeather, © 2014

See weather overviewHow to use our weather pages